TimeCDT,TemperatureF,Dew PointF,Humidity,Sea Level PressureIn,VisibilityMPH,Wind Direction,Wind SpeedMPH,Gust SpeedMPH,PrecipitationIn,Events,Conditions,WindDirDegrees,DateUTC
12:15 AM,44.6,44.2,99,29.54,0.5,ESE,10.4,-,N/A,Fog,Fog,110,2014-04-04 05:15:00
12:35 AM,44.6,44.2,99,29.54,0.5,SE,6.9,-,N/A,Fog,Fog,130,2014-04-04 05:35:00
12:55 AM,44.8,44.6,99,29.53,0.5,ESE,6.9,-,N/A,Fog,Fog,120,2014-04-04 05:55:00
1:15 AM,45.0,44.6,99,29.52,0.5,ESE,9.2,-,N/A,Fog,Fog,120,2014-04-04 06:15:00
1:35 AM,45.5,45.1,99,29.52,1.0,SSE,10.4,-,N/A,,Light Drizzle,150,2014-04-04 06:35:00
1:55 AM,46.4,46.0,99,29.52,1.0,South,12.7,-,N/A,Rain,Light Rain,170,2014-04-04 06:55:00
2:15 AM,47.5,47.3,99,29.52,1.5,SSW,16.1,20.7,N/A,,Drizzle,210,2014-04-04 07:15:00
2:35 AM,48.6,48.2,99,29.52,7.0,WSW,25.3,28.8,N/A,,Overcast,240,2014-04-04 07:35:00
2:55 AM,47.3,47.1,99,29.52,10.0,WSW,24.2,29.9,N/A,,Overcast,240,2014-04-04 07:55:00
3:15 AM,47.1,45.0,92,29.51,10.0,WSW,20.7,26.5,N/A,,Overcast,250,2014-04-04 08:15:00
3:35 AM,46.4,44.6,93,29.52,5.0,WSW,18.4,25.3,N/A,,Overcast,240,2014-04-04 08:35:00
3:55 AM,45.1,43.3,93,29.52,4.0,SW,19.6,27.6,N/A,,Overcast,230,2014-04-04 08:55:00
4:15 AM,43.0,41.4,94,29.54,2.5,WSW,20.7,27.6,N/A,,Overcast,240,2014-04-04 09:15:00
4:35 AM,41.5,40.1,95,29.56,5.0,WSW,18.4,27.6,N/A,,Overcast,250,2014-04-04 09:35:00
4:55 AM,39.2,36.9,91,29.58,10.0,West,24.2,33.4,N/A,,Overcast,260,2014-04-04 09:55:00
5:15 AM,37.9,35.6,91,29.60,10.0,West,21.9,28.8,N/A,,Overcast,260,2014-04-04 10:15:00
5:35 AM,37.0,34.3,90,29.61,10.0,West,23.0,28.8,N/A,,Overcast,260,2014-04-04 10:35:00
5:55 AM,36.3,32.7,87,29.62,10.0,West,23.0,28.8,N/A,,Overcast,260,2014-04-04 10:55:00
6:15 AM,36.0,32.2,86,29.63,10.0,West,20.7,29.9,N/A,,Overcast,260,2014-04-04 11:15:00
6:35 AM,35.6,32.2,87,29.64,10.0,West,18.4,29.9,N/A,,Overcast,260,2014-04-04 11:35:00
6:55 AM,35.6,32.0,87,29.65,10.0,West,18.4,29.9,N/A,,Overcast,270,2014-04-04 11:55:00
7:15 AM,35.2,32.0,88,29.67,10.0,West,25.3,33.4,N/A,,Overcast,270,2014-04-04 12:15:00
7:35 AM,34.9,32.0,89,29.68,10.0,West,19.6,27.6,N/A,,Overcast,270,2014-04-04 12:35:00
7:55 AM,34.7,32.0,90,29.70,10.0,West,13.8,23.0,N/A,,Overcast,270,2014-04-04 12:55:00
8:15 AM,34.3,31.5,89,29.71,7.0,West,19.6,31.1,N/A,,Overcast,280,2014-04-04 13:15:00
8:35 AM,34.2,31.1,89,29.72,10.0,West,21.9,34.5,N/A,,Overcast,280,2014-04-04 13:35:00
8:55 AM,34.2,30.7,87,29.73,10.0,West,25.3,32.2,N/A,,Overcast,280,2014-04-04 13:55:00
9:15 AM,34.0,30.0,85,29.74,10.0,West,20.7,32.2,N/A,,Overcast,280,2014-04-04 14:15:00
9:35 AM,34.0,29.3,83,29.75,10.0,WNW,20.7,32.2,N/A,,Overcast,290,2014-04-04 14:35:00
9:55 AM,34.5,29.3,81,29.76,10.0,West,18.4,28.8,N/A,,Overcast,280,2014-04-04 14:55:00
10:15 AM,34.7,28.8,79,29.78,10.0,WNW,20.7,33.4,N/A,,Overcast,290,2014-04-04 15:15:00
10:35 AM,35.2,28.4,76,29.79,10.0,West,20.7,28.8,N/A,,Overcast,280,2014-04-04 15:35:00
10:55 AM,35.6,27.9,73,29.80,10.0,WNW,20.7,28.8,N/A,,Overcast,290,2014-04-04 15:55:00
11:15 AM,36.1,28.2,73,29.81,10.0,WNW,21.9,28.8,N/A,,Overcast,290,2014-04-04 16:15:00
11:35 AM,36.5,27.7,70,29.83,10.0,WNW,18.4,35.7,N/A,,Overcast,290,2014-04-04 16:35:00
11:55 AM,36.7,27.3,69,29.83,10.0,WNW,20.7,34.5,N/A,,Overcast,290,2014-04-04 16:55:00
12:15 PM,37.4,28.0,69,29.84,10.0,West,19.6,33.4,N/A,,Overcast,280,2014-04-04 17:15:00
12:35 PM,37.6,28.2,69,29.85,10.0,West,23.0,38.0,N/A,,Overcast,280,2014-04-04 17:35:00
1:15 PM,38.3,27.5,65,29.86,10.0,West,19.6,32.2,N/A,,Overcast,280,2014-04-04 18:15:00
1:35 PM,38.7,27.1,63,29.86,10.0,WNW,25.3,35.7,N/A,,Overcast,300,2014-04-04 18:35:00
1:55 PM,39.9,27.7,62,29.87,10.0,West,24.2,35.7,N/A,,Overcast,280,2014-04-04 18:55:00
2:15 PM,39.6,27.7,62,29.88,10.0,WNW,29.9,36.8,N/A,,Overcast,290,2014-04-04 19:15:00
2:35 PM,40.5,27.5,60,29.89,10.0,WNW,19.6,38.0,N/A,,Overcast,290,2014-04-04 19:35:00
2:55 PM,40.6,27.7,60,29.90,10.0,WNW,21.9,36.8,N/A,,Overcast,290,2014-04-04 19:55:00
3:15 PM,40.5,28.0,61,29.90,10.0,WNW,20.7,34.5,N/A,,Overcast,290,2014-04-04 20:15:00
3:55 PM,41.5,27.3,57,29.92,10.0,WNW,24.2,34.5,N/A,,Overcast,290,2014-04-04 20:55:00
4:15 PM,41.5,28.2,59,29.93,10.0,WNW,18.4,28.8,N/A,,Overcast,290,2014-04-04 21:15:00
4:35 PM,41.5,27.3,57,29.94,10.0,WNW,20.7,32.2,N/A,,Overcast,290,2014-04-04 21:35:00
4:55 PM,41.9,27.5,57,29.94,10.0,WNW,19.6,27.6,N/A,,Overcast,300,2014-04-04 21:55:00
5:15 PM,41.5,27.5,57,29.95,10.0,WNW,15.0,32.2,N/A,,Overcast,300,2014-04-04 22:15:00
5:35 PM,41.9,27.9,58,29.97,10.0,WNW,17.3,26.5,N/A,,Overcast,300,2014-04-04 22:35:00
5:55 PM,41.9,26.8,55,29.98,10.0,WNW,20.7,28.8,N/A,,Overcast,300,2014-04-04 22:55:00
6:15 PM,41.4,28.6,60,29.98,10.0,WNW,13.8,25.3,N/A,,Overcast,290,2014-04-04 23:15:00
6:35 PM,41.2,27.7,59,30.00,10.0,WNW,17.3,27.6,N/A,,Overcast,290,2014-04-04 23:35:00
6:55 PM,41.0,27.7,59,30.00,10.0,West,12.7,23.0,N/A,,Overcast,280,2014-04-04 23:55:00
7:15 PM,40.6,27.5,59,30.02,10.0,WNW,13.8,21.9,N/A,,Overcast,290,2014-04-05 00:15:00
7:35 PM,40.3,27.5,60,30.03,10.0,WNW,12.7,23.0,N/A,,Overcast,290,2014-04-05 00:35:00
7:55 PM,40.1,27.0,59,30.03,10.0,West,11.5,21.9,N/A,,Overcast,280,2014-04-05 00:55:00
8:15 PM,39.7,27.1,61,30.04,10.0,West,15.0,23.0,N/A,,Overcast,270,2014-04-05 01:15:00
8:35 PM,39.6,27.1,61,30.06,10.0,West,15.0,21.9,N/A,,Overcast,280,2014-04-05 01:35:00
8:55 PM,39.2,27.3,62,30.07,10.0,WNW,11.5,-,N/A,,Overcast,290,2014-04-05 01:55:00
9:15 PM,39.6,27.0,61,30.08,10.0,WNW,12.7,16.1,N/A,,Overcast,290,2014-04-05 02:15:00
9:35 PM,39.4,27.0,61,30.09,10.0,WNW,11.5,17.3,N/A,,Overcast,290,2014-04-05 02:35:00
9:55 PM,39.4,26.8,61,30.10,10.0,WNW,12.7,17.3,N/A,,Overcast,300,2014-04-05 02:55:00
10:15 PM,39.2,27.1,62,30.11,10.0,WNW,11.5,-,N/A,,Overcast,290,2014-04-05 03:15:00
10:35 PM,39.2,27.3,62,30.12,10.0,WNW,10.4,-,N/A,,Overcast,290,2014-04-05 03:35:00
10:55 PM,39.2,27.3,62,30.12,10.0,WNW,9.2,-,N/A,,Overcast,290,2014-04-05 03:55:00
11:15 PM,39.2,27.3,62,30.13,10.0,WNW,6.9,-,N/A,,Overcast,290,2014-04-05 04:15:00
11:35 PM,38.8,27.5,64,30.13,10.0,WNW,9.2,-,N/A,,Overcast,290,2014-04-05 04:35:00
11:55 PM,38.5,27.7,65,30.13,10.0,West,9.2,-,N/A,,Overcast,280,2014-04-05 04:55:00